GW6485 Weather Reports


time (UTC)temp
C
wind
direction
speed
KPH
gust
KPH
rain 1hr
cm
rain 24hr
cm
rain mn
cm
humidity
%
barometer
mb
20260502130323 18 16 9.7 12.9 0.00 0.00 0.00 45 1005.9
20260502123809 17 5 9.7 12.9 0.00 0.00 0.00 44 1005.3
20260502123306 17 2 6.4 8.0 0.00 0.00 0.00 42 1005.3
20260502122802 17 1 6.4 9.7 0.00 0.00 0.00 41 1005.3
20260502122258 16 7 4.8 6.4 0.00 0.00 0.00 40 1005.5
20260502121757 16 6 3.2 6.4 0.00 0.00 0.00 40 1005.4
20260502121254 16 0 3.2 6.4 0.00 0.00 0.00 40 1005.3
20260502120751 16 0 3.2 4.8 0.00 0.00 0.00 40 1005.4
20260502120247 16 10 4.8 6.4 0.00 0.00 0.00 39 1005.4
20260502115745 16 29 3.2 3.2 0.00 0.00 0.00 39 1005.4
20260502115242 16 18 3.2 6.4 0.00 0.00 0.00 39 1005.1
20260502114737 15 18 3.2 4.8 0.00 0.00 0.00 40 1005.3
20260502114235 15 0 0.0 3.2 0.00 0.00 0.00 40 1005.2
20260502113732 16 16 4.8 4.8 0.00 0.00 0.00 39 1005.2
20260502113230 16 9 3.2 4.8 0.00 0.00 0.00 39 1005.0
20260502112728 16 13 6.4 6.4 0.00 0.00 0.00 39 1005.1
20260502112225 15 15 4.8 6.4 0.00 0.00 0.00 40 1004.8
20260502111722 14 3 3.2 4.8 0.00 0.00 0.00 40 1005.3
20260502111220 14 2 3.2 4.8 0.00 0.00 0.00 40 1005.2
20260502110717 14 25 3.2 4.8 0.00 0.00 0.00 40 1005.3
20260502110215 14 1 0.0 1.6 0.00 0.00 0.00 41 1005.1
20260502105712 14 44 0.0 3.2 0.00 0.00 0.00 41 1005.2
20260502105209 15 6 0.0 1.6 0.00 0.00 0.00 40 1005.0
20260502104707 15 40 1.6 1.6 0.00 0.00 0.00 39 1005.5
20260502104204 15 21 0.0 3.2 0.00 0.00 0.00 39 1005.2
20260502103701 15 117 1.6 3.2 0.00 0.00 0.00 39 1005.5
20260502103159 15 126 0.0 4.8 0.00 0.00 0.00 39 1005.2
20260502102655 15 321 0.0 3.2 0.00 0.00 0.00 39 1005.4
20260502102152 15 32 1.6 3.2 0.00 0.00 0.00 38 1005.3
20260502101650 15 85 3.2 3.2 0.00 0.00 0.00 38 1005.1
20260502101148 15 139 3.2 4.8 0.00 0.00 0.00 38 1005.4
20260502100646 15 131 3.2 4.8 0.00 0.00 0.00 38 1005.2
20260502100144 15 129 0.0 1.6 0.00 0.00 0.00 38 1005.0
20260502091118 17 149 1.6 3.2 0.00 0.00 0.00 34 1004.6
20260502090615 17 296 0.0 3.2 0.00 0.00 0.00 32 1004.8
20260502090112 18 131 0.0 3.2 0.00 0.00 0.00 32 1004.6
20260502071515 20 60 0.0 3.2 0.00 0.00 0.00 28 1004.8
20260502071014 20 68 1.6 4.8 0.00 0.00 0.00 28 1004.8
20260502070511 20 72 3.2 3.2 0.00 0.00 0.00 30 1004.7
20260502070009 19 67 0.0 3.2 0.00 0.00 0.00 30 1005.1
20260502065508 19 63 0.0 3.2 0.00 0.00 0.00 30 1005.0
20260502065005 19 52 0.0 3.2 0.00 0.00 0.00 30 1005.0
20260502064503 19 135 0.0 3.2 0.00 0.00 0.00 30 1004.8
20260502064000 19 157 0.0 1.6 0.00 0.00 0.00 30 1004.8
20260502063458 20 130 1.6 3.2 0.00 0.00 0.00 30 1005.2
20260502062955 20 74 1.6 3.2 0.00 0.00 0.00 30 1004.8
20260502062452 20 122 1.6 3.2 0.00 0.00 0.00 30 1004.7
20260502061951 20 105 0.0 3.2 0.00 0.00 0.00 29 1004.8
20260502061449 20 68 1.6 3.2 0.00 0.00 0.00 29 1004.7
20260502060944 20 116 0.0 1.6 0.00 0.00 0.00 29 1004.7
20260502060439 20 216 0.0 3.2 0.00 0.00 0.00 29 1004.7
20260502055936 21 113 0.0 1.6 0.00 0.00 0.00 28 1005.0
20260502055434 21 65 0.0 3.2 0.00 0.00 0.00 28 1004.8
20260502054929 21 86 0.0 3.2 0.00 0.00 0.00 28 1004.3
20260502054426 21 43 3.2 3.2 0.00 0.00 0.00 28 1004.6
20260502053923 21 70 1.6 3.2 0.00 0.00 0.00 28 1004.5
20260502053420 21 66 3.2 3.2 0.00 0.00 0.00 29 1004.6
20260502052918 21 122 0.0 3.2 0.00 0.00 0.00 28 1004.5
20260502052416 21 51 3.2 3.2 0.00 0.00 0.00 28 1004.5
20260502051914 22 87 3.2 4.8 0.00 0.00 0.00 28 1004.4
20260502051412 21 130 0.0 1.6 0.00 0.00 0.00 29 1004.4
20260502050908 22 142 0.0 3.2 0.00 0.00 0.00 28 1004.3
20260502050405 22 180 1.6 4.8 0.00 0.00 0.00 28 1004.4
20260502045902 22 62 0.0 3.2 0.00 0.00 0.00 27 1004.4
20260502045359 22 82 1.6 3.2 0.00 0.00 0.00 27 1004.3
20260502044856 22 92 1.6 3.2 0.00 0.00 0.00 27 1004.3
20260502044351 22 111 1.6 3.2 0.00 0.00 0.00 27 1004.2
20260502043849 22 77 0.0 3.2 0.00 0.00 0.00 26 1004.2
20260502043346 23 94 0.0 3.2 0.00 0.00 0.00 26 1004.1
20260502042846 23 120 3.2 4.8 0.00 0.00 0.00 26 1004.1
20260502042343 23 120 1.6 4.8 0.00 0.00 0.00 26 1004.0
20260502041841 23 222 0.0 3.2 0.00 0.00 0.00 26 1004.0
20260502041338 23 162 0.0 6.4 0.00 0.00 0.00 26 1004.0
20260502040835 23 154 4.8 4.8 0.00 0.00 0.00 26 1004.0
20260502040332 23 31 1.6 3.2 0.00 0.00 0.00 26 1003.5
20260502035828 23 125 1.6 3.2 0.00 0.00 0.00 27 1003.6
20260502035325 23 153 0.0 3.2 0.00 0.00 0.00 27 1003.6
20260502034822 23 98 0.0 3.2 0.00 0.00 0.00 26 1003.5
20260502034320 23 150 1.6 3.2 0.00 0.00 0.00 26 1003.6
20260502033819 23 134 1.6 4.8 0.00 0.00 0.00 26 1003.2
20260502033316 23 160 3.2 4.8 0.00 0.00 0.00 26 1003.5
20260502032812 23 121 4.8 4.8 0.00 0.00 0.00 26 1003.2
20260502032308 23 113 0.0 4.8 0.00 0.00 0.00 26 1003.2
20260502031806 24 127 3.2 4.8 0.00 0.00 0.00 26 1003.2
20260502031304 24 136 1.6 4.8 0.00 0.00 0.00 26 1003.1
20260502030803 24 118 0.0 3.2 0.00 0.00 0.00 26 1003.0
20260502030300 24 113 0.0 4.8 0.00 0.00 0.00 26 1002.9
20260502025757 24 177 1.6 3.2 0.00 0.00 0.00 26 1002.6
20260502025255 24 87 1.6 3.2 0.00 0.00 0.00 25 1002.8
20260502024753 24 104 0.0 3.2 0.00 0.00 0.00 25 1002.7
20260502024250 25 97 0.0 3.2 0.00 0.00 0.00 25 1002.6
20260502023748 25 167 1.6 4.8 0.00 0.00 0.00 25 1002.4
20260502023245 25 98 1.6 3.2 0.00 0.00 0.00 25 1002.4
20260502022743 25 88 0.0 3.2 0.00 0.00 0.00 25 1002.3
20260502022239 26 81 0.0 3.2 0.00 0.00 0.00 24 1002.3
20260502021736 26 126 1.6 3.2 0.00 0.00 0.00 24 1002.4
20260502021234 26 153 3.2 6.4 0.00 0.00 0.00 24 1002.2
20260502020731 26 137 3.2 6.4 0.00 0.00 0.00 24 1002.1
20260502020228 26 150 3.2 8.0 0.00 0.00 0.00 23 1002.0
20260502015726 27 136 3.2 11.3 0.00 0.00 0.00 22 1002.3
20260502015222 27 117 3.2 9.7 0.00 0.00 0.00 21 1002.0
20260502014720 27 145 6.4 6.4 0.00 0.00 0.00 21 1002.0
20260502014216 27 105 4.8 8.0 0.00 0.00 0.00 21 1002.0
20260502013713 27 130 3.2 4.8 0.00 0.00 0.00 21 1001.9
20260502013208 27 136 4.8 8.0 0.00 0.00 0.00 21 1001.9
20260502012705 27 160 1.6 9.7 0.00 0.00 0.00 20 1001.9
20260502012203 27 135 4.8 8.0 0.00 0.00 0.00 20 1001.7
20260502011659 27 91 4.8 11.3 0.00 0.00 0.00 20 1001.9
20260502011155 28 143 1.6 9.7 0.00 0.00 0.00 20 1001.9
20260502010653 28 106 0.0 6.4 0.00 0.00 0.00 20 1001.9
20260502010149 28 143 6.4 11.3 0.00 0.00 0.00 19 1002.0
20260502005647 29 142 6.4 11.3 0.00 0.00 0.00 19 1001.5
20260502005144 30 145 8.0 8.0 0.00 0.00 0.00 19 1001.7
20260502004640 29 95 3.2 6.4 0.00 0.00 0.00 19 1001.6
20260502004137 29 144 9.7 11.3 0.00 0.00 0.00 20 1001.6
20260502003635 29 145 6.4 16.1 0.00 0.00 0.00 20 1001.6
20260502003132 30 97 1.6 6.4 0.00 0.00 0.00 19 1001.9
20260502002628 30 141 4.8 9.7 0.00 0.00 0.00 19 1001.6
20260502002125 30 153 9.7 11.3 0.00 0.00 0.00 19 1001.7
20260502001623 30 138 9.7 9.7 0.00 0.00 0.00 19 1001.7
20260502001120 30 132 9.7 11.3 0.00 0.00 0.00 19 1001.7
20260502000618 29 130 1.6 11.3 0.00 0.00 0.00 19 1002.0
20260502000115 30 146 3.2 11.3 0.00 0.00 0.00 18 1001.7
20260501235611 30 138 4.8 6.4 0.00 0.00 0.00 19 1001.6
20260501235107 30 136 3.2 12.9 0.00 0.00 0.00 20 1001.9
20260501234603 30 82 6.4 14.5 0.00 0.00 0.00 19 1001.6
20260501234101 30 65 4.8 6.4 0.00 0.00 0.00 19 1001.9
20260501233559 30 114 3.2 8.0 0.00 0.00 0.00 19 1001.7
20260501233055 30 185 9.7 19.3 0.00 0.00 0.00 20 1001.7
20260501232551 30 153 4.8 14.5 0.00 0.00 0.00 20 1001.5
20260501232049 30 171 6.4 19.3 0.00 0.00 0.00 20 1001.7
20260501231546 29 73 0.0 12.9 0.00 0.00 0.00 20 1001.7
20260501231045 30 140 11.3 17.7 0.00 0.00 0.00 20 1001.9
20260501230543 29 120 4.8 16.1 0.00 0.00 0.00 21 1001.6
20260501230040 30 172 6.4 16.1 0.00 0.00 0.00 20 1001.9
20260501225538 30 129 11.3 12.9 0.00 0.00 0.00 20 1001.5
20260501225034 30 133 6.4 14.5 0.00 0.00 0.00 20 1001.7
20260501224532 30 117 4.8 8.0 0.00 0.00 0.00 20 1001.9
20260501224029 30 140 4.8 8.0 0.00 0.00 0.00 20 1002.1
20260501223525 31 93 4.8 8.0 0.00 0.00 0.00 20 1002.1
20260501223021 30 155 4.8 9.7 0.00 0.00 0.00 20 1002.1
20260501222518 30 117 6.4 11.3 0.00 0.00 0.00 20 1002.2
20260501222015 29 124 0.0 6.4 0.00 0.00 0.00 21 1002.3
20260501221511 30 181 3.2 8.0 0.00 0.00 0.00 21 1002.3
20260501221009 30 123 4.8 8.0 0.00 0.00 0.00 21 1002.5
20260501220507 30 23 0.0 4.8 0.00 0.00 0.00 21 1002.2
20260501220003 29 154 6.4 11.3 0.00 0.00 0.00 21 1002.6
20260501215459 30 127 6.4 14.5 0.00 0.00 0.00 21 1002.5
20260501214954 28 128 6.4 17.7 0.00 0.00 0.00 22 1002.5
20260501214450 30 135 6.4 12.9 0.00 0.00 0.00 22 1002.9
20260501213946 30 149 8.0 12.9 0.00 0.00 0.00 22 1002.7
20260501213443 29 26 4.8 6.4 0.00 0.00 0.00 23 1002.8
20260501212938 29 147 8.0 8.0 0.00 0.00 0.00 23 1002.9
20260501212436 28 229 6.4 11.3 0.00 0.00 0.00 23 1002.8
20260501211932 29 22 3.2 9.7 0.00 0.00 0.00 23 1003.0
20260501211430 29 155 9.7 9.7 0.00 0.00 0.00 23 1003.1
20260501210927 28 136 6.4 12.9 0.00 0.00 0.00 24 1003.2
20260501210424 28 129 6.4 20.9 0.00 0.00 0.00 24 1003.4
20260501205920 29 138 6.4 9.7 0.00 0.00 0.00 24 1003.2
20260501205417 29 128 8.0 17.7 0.00 0.00 0.00 23 1003.5
20260501204914 28 161 4.8 9.7 0.00 0.00 0.00 25 1003.5
20260501204410 28 196 3.2 8.0 0.00 0.00 0.00 25 1003.6
20260501203906 28 190 6.4 14.5 0.00 0.00 0.00 24 1003.5
20260501203404 28 210 0.0 8.0 0.00 0.00 0.00 24 1003.6
20260501202901 28 114 0.0 11.3 0.00 0.00 0.00 25 1003.8
20260501202358 28 69 3.2 8.0 0.00 0.00 0.00 25 1003.7
20260501201854 27 264 3.2 9.7 0.00 0.00 0.00 26 1003.9
20260501201351 27 204 4.8 8.0 0.00 0.00 0.00 26 1003.9
20260501200848 27 153 11.3 12.9 0.00 0.00 0.00 26 1003.8
20260501200345 27 133 3.2 4.8 0.00 0.00 0.00 25 1003.7
20260501195843 27 241 4.8 8.0 0.00 0.00 0.00 26 1003.8
20260501195338 27 122 4.8 11.3 0.00 0.00 0.00 26 1003.9
20260501194834 27 171 9.7 11.3 0.00 0.00 0.00 26 1003.8
20260501194331 27 135 8.0 9.7 0.00 0.00 0.00 25 1003.9
20260501193827 27 131 8.0 14.5 0.00 0.00 0.00 25 1004.1
20260501193326 27 351 3.2 8.0 0.00 0.00 0.00 25 1004.1
20260501192823 27 252 4.8 8.0 0.00 0.00 0.00 25 1004.3
20260501192320 27 166 6.4 14.5 0.00 0.00 0.00 25 1004.2
20260501191817 27 78 4.8 8.0 0.00 0.00 0.00 25 1004.4
20260501191314 27 177 3.2 9.7 0.00 0.00 0.00 27 1004.4
20260501190811 27 109 0.0 8.0 0.00 0.00 0.00 26 1004.4
20260501190307 27 126 3.2 8.0 0.00 0.00 0.00 26 1004.8
20260501185802 26 143 11.3 12.9 0.00 0.00 0.00 26 1004.5
20260501185258 26 185 6.4 12.9 0.00 0.00 0.00 27 1004.6
20260501184754 26 27 6.4 9.7 0.00 0.00 0.00 27 1004.6
20260501184250 26 123 1.6 11.3 0.00 0.00 0.00 27 1004.8
20260501183746 26 164 4.8 12.9 0.00 0.00 0.00 27 1005.0
20260501183243 26 132 6.4 8.0 0.00 0.00 0.00 29 1005.1
20260501182739 26 254 3.2 3.2 0.00 0.00 0.00 29 1005.2
20260501182236 26 120 4.8 8.0 0.00 0.00 0.00 29 1005.4
20260501181733 26 154 4.8 14.5 0.00 0.00 0.00 29 1005.2
20260501181231 26 141 4.8 16.1 0.00 0.00 0.00 30 1005.3
20260501180729 26 153 3.2 6.4 0.00 0.00 0.00 32 1005.5
20260501180224 26 120 6.4 6.4 0.00 0.00 0.00 31 1005.5
20260501175721 25 81 3.2 9.7 0.00 0.00 0.00 32 1005.4
20260501175218 25 98 3.2 6.4 0.00 0.00 0.00 33 1005.5
20260501174714 25 120 6.4 12.9 0.00 0.00 0.00 33 1005.6
20260501174212 25 194 3.2 4.8 0.00 0.00 0.00 34 1005.6
20260501173710 25 348 1.6 8.0 0.00 0.00 0.00 35 1005.7
20260501173207 25 97 4.8 9.7 0.00 0.00 0.00 35 1005.6
20260501172703 24 235 3.2 8.0 0.00 0.00 0.00 38 1005.7
20260501172157 25 125 6.4 8.0 0.00 0.00 0.00 36 1005.8
20260501171654 25 126 3.2 6.4 0.00 0.00 0.00 36 1005.5
20260501171151 24 171 3.2 4.8 0.00 0.00 0.00 38 1005.6
20260501170648 25 256 6.4 9.7 0.00 0.00 0.00 38 1005.5
20260501170145 24 119 3.2 6.4 0.00 0.00 0.00 38 1005.7
20260501165642 24 65 0.0 4.8 0.00 0.00 0.00 38 1005.6
20260501165139 23 111 1.6 4.8 0.00 0.00 0.00 40 1005.5
20260501164638 23 142 0.0 4.8 0.00 0.00 0.00 41 1005.9
20260501164134 23 229 3.2 6.4 0.00 0.00 0.00 41 1005.5
20260501163630 23 194 11.3 11.3 0.00 0.00 0.00 41 1005.7
20260501163127 23 220 1.6 4.8 0.00 0.00 0.00 40 1005.6
20260501162623 23 21 3.2 8.0 0.00 0.00 0.00 41 1005.7
20260501162120 22 17 4.8 6.4 0.00 0.00 0.00 42 1005.7
20260501161617 22 294 3.2 6.4 0.00 0.00 0.00 43 1005.8
20260501161115 22 333 3.2 6.4 0.00 0.00 0.00 43 1005.8
20260501160611 23 260 0.0 3.2 0.00 0.00 0.00 41 1005.6
20260501160108 22 97 1.6 6.4 0.00 0.00 0.00 44 1005.6
20260501155604 22 6 6.4 6.4 0.00 0.00 0.00 42 1005.5
20260501155102 21 294 3.2 8.0 0.00 0.00 0.00 45 1005.5
20260501154559 21 143 1.6 4.8 0.00 0.00 0.00 46 1005.5
20260501154056 20 253 6.4 8.0 0.00 0.00 0.00 49 1005.4
20260501153553 20 266 4.8 6.4 0.00 0.00 0.00 51 1005.4
20260501153050 20 1 6.4 9.7 0.00 0.00 0.00 52 1005.2
20260501152547 20 24 6.4 9.7 0.00 0.00 0.00 53 1005.3
20260501152044 21 12 3.2 6.4 0.00 0.00 0.00 52 1005.4
20260501151540 20 275 1.6 6.4 0.00 0.00 0.00 53 1005.2
20260501151037 19 11 3.2 6.4 0.00 0.00 0.00 55 1005.3
20260501150533 20 0 6.4 9.7 0.00 0.00 0.00 55 1005.2
20260501150030 18 13 3.2 12.9 0.00 0.00 0.00 58 1005.3
20260501145526 18 11 1.6 8.0 0.00 0.00 0.00 59 1005.0
20260501145024 18 38 4.8 9.7 0.00 0.00 0.00 59 1005.1
20260501144520 18 336 3.2 8.0 0.00 0.00 0.00 57 1004.7
20260501144015 19 359 1.6 6.4 0.00 0.00 0.00 56 1004.8
20260501143512 18 294 6.4 6.4 0.00 0.00 0.00 56 1005.0
20260501143009 18 323 3.2 4.8 0.00 0.00 0.00 56 1005.1
20260501142507 18 280 6.4 9.7 0.00 0.00 0.00 56 1004.8
20260501142001 18 275 3.2 6.4 0.00 0.00 0.00 56 1005.0
20260501141457 18 336 0.0 4.8 0.00 0.00 0.00 57 1004.6
20260501140956 18 252 3.2 6.4 0.00 0.00 0.00 57 1004.8
20260501140457 18 35 0.0 4.8 0.00 0.00 0.00 58 1004.8
20260501135953 18 336 4.8 6.4 0.00 0.00 0.00 58 1005.1